DW5018 Cobb Island MD US current weather conditions

sailwx.info

Wind from 360 at 0 knots gusting 6

Air temperature 19.4° C
Dewpoint 9.9° C

Last reported at 2020-Sep-20 17:08 UTC.
Time now 2020-Sep-20 17:59 UTC

Location: N 38°16' W 076°51'.
View on Google Maps.

See reports from other nearby stations

  
Tides and Currents Weather Stations Pressure Air Temp Water Temp Dewpoint Dewpoint Depression Visibility Wind Speed Wind Dir Waves Ship Positions
date/time (UTC)wind fromknots sea level pressurealtimeterstation pressurevisibilityair tempwater tempwave heightnotes
2020-Sep-20 17:08 360 0 gusting 6 19.4
2020-Sep-20 17:03 073 3 gusting 8 19.4
2020-Sep-20 16:58 053 4 gusting 8 19.4
2020-Sep-20 16:53 084 2 gusting 8 19.4
2020-Sep-20 16:48 070 1 gusting 9 18.9
2020-Sep-20 16:43 086 5 gusting 9 18.9
2020-Sep-20 16:38 018 4 gusting 8 18.9
2020-Sep-20 16:33 034 3 gusting 6 19.4
2020-Sep-20 16:28 063 2 gusting 9 18.9
2020-Sep-20 16:23 048 1 gusting 9 18.9
2020-Sep-20 16:18 063 4 gusting 8 18.9
2020-Sep-20 16:13 360 0 gusting 8 18.9
2020-Sep-20 16:08 104 3 gusting 8 18.9
2020-Sep-20 16:03 044 4 gusting 9 18.9
2020-Sep-20 15:58 049 4 gusting 9 18.9
2020-Sep-20 15:53 038 2 gusting 9 18.9
2020-Sep-20 15:48 077 3 gusting 9 18.9
2020-Sep-20 15:43 105 5 gusting 9 18.3
2020-Sep-20 15:38 100 2 gusting 8 18.3
2020-Sep-20 15:33 082 2 gusting 12 18.3
2020-Sep-20 15:28 052 3 gusting 12 18.3
2020-Sep-20 15:23 080 1 gusting 8 18.3
2020-Sep-20 15:18 105 4 gusting 8 18.3
2020-Sep-20 15:13 111 2 gusting 10 18.3
2020-Sep-20 15:08 063 5 gusting 10 18.3
2020-Sep-20 15:03 058 4 gusting 7 18.3
2020-Sep-20 14:58 077 2 gusting 5 18.3
2020-Sep-20 14:53 065 2 gusting 9 17.8
2020-Sep-20 14:48 069 2 gusting 9 17.8
2020-Sep-20 14:43 052 4 gusting 12 17.8
2020-Sep-20 14:38 074 2 gusting 12 17.8
2020-Sep-20 14:33 036 3 gusting 9 17.2
2020-Sep-20 14:28 059 3 gusting 8 17.2
2020-Sep-20 14:23 082 2 gusting 10 17.2
2020-Sep-20 14:18 030 4 gusting 11 16.7
2020-Sep-20 14:13 108 4 gusting 11 16.7
2020-Sep-20 14:08 060 4 gusting 10 16.7
2020-Sep-20 14:03 055 3 gusting 9 16.7
2020-Sep-20 13:58 039 4 gusting 9 16.7
2020-Sep-20 13:53 034 4 gusting 6 16.1
2020-Sep-20 13:48 031 3 gusting 8 16.1
2020-Sep-20 13:43 300 3 gusting 9 16.1
2020-Sep-20 13:38 062 2 gusting 8 15.6
2020-Sep-20 13:33 098 3 gusting 10 15.6
2020-Sep-20 13:28 049 4 gusting 10 15.6
2020-Sep-20 13:23 083 5 gusting 9 15.0
2020-Sep-20 13:18 032 3 gusting 9 15.0
2020-Sep-20 13:13 061 3 gusting 6 15.0
2020-Sep-20 13:08 088 3 gusting 6 14.4
2020-Sep-20 13:03 021 0 gusting 6 14.4
2020-Sep-20 12:58 032 3 gusting 6 14.4
2020-Sep-20 12:53 054 0 gusting 4 13.9
2020-Sep-20 12:48 067 1 gusting 4 13.9
2020-Sep-20 12:43 018 1 gusting 5 13.9
2020-Sep-20 12:38 076 13.3
2020-Sep-20 12:33 064 3 gusting 6 13.3
2020-Sep-20 12:28 071 2 gusting 6 13.3
2020-Sep-20 12:23 026 3 gusting 6 12.8
2020-Sep-20 12:18 060 2 gusting 6 12.8
2020-Sep-20 12:13 085 1 gusting 5 12.8
2020-Sep-20 12:08 024 1 gusting 6 12.8
2020-Sep-20 12:03 077 2 gusting 6 12.8
2020-Sep-20 11:58 026 2 gusting 5 12.8
2020-Sep-20 11:53 062 0 gusting 3 12.8
2020-Sep-20 11:48 071 12.8
2020-Sep-20 11:43 028 12.2
2020-Sep-20 11:38 016 12.2
2020-Sep-20 11:33 005 11.7
2020-Sep-20 11:28 005 11.7
2020-Sep-20 11:23 005 11.1
2020-Sep-20 11:18 005 10.6
2020-Sep-20 11:13 051 10.6
2020-Sep-20 11:08 051 10.6
2020-Sep-20 11:03 051 10.6
2020-Sep-20 10:58 052 10.6
2020-Sep-20 10:53 052 10.6
2020-Sep-20 10:48 052 10.6
2020-Sep-20 10:43 052 10.6
2020-Sep-20 10:38 052 10.6
2020-Sep-20 10:33 052 10.6
2020-Sep-20 10:28 053 10.6
2020-Sep-20 10:23 053 11.1
2020-Sep-20 10:18 043 11.1
2020-Sep-20 10:13 049 0 gusting 2 11.1
2020-Sep-20 10:08 060 11.1
2020-Sep-20 10:03 059 0 gusting 3 11.1
2020-Sep-20 09:58 076 0 gusting 3 11.1
2020-Sep-20 09:53 046 11.1
2020-Sep-20 09:48 037 10.6
2020-Sep-20 09:43 027 10.6
2020-Sep-20 09:38 023 10.6
2020-Sep-20 09:33 355 10.6
2020-Sep-20 09:28 355 11.1
2020-Sep-20 09:23 355 11.1
2020-Sep-20 09:18 355 11.1
2020-Sep-20 09:13 355 11.1
2020-Sep-20 09:08 355 11.1
2020-Sep-20 09:03 355 11.1
2020-Sep-20 08:58 063 11.1
2020-Sep-20 08:53 063 11.1
2020-Sep-20 08:48 067 11.1
2020-Sep-20 08:43 056 11.1
2020-Sep-20 08:38 046 11.1
2020-Sep-20 08:33 057 11.1
2020-Sep-20 08:28 057 0 gusting 1 11.1
2020-Sep-20 08:23 040 11.7
2020-Sep-20 08:18 059 11.7
2020-Sep-20 08:13 059 11.7
2020-Sep-20 08:08 005 11.7
2020-Sep-20 08:03 040 11.7
2020-Sep-20 07:58 036 1 gusting 3 11.7
2020-Sep-20 07:53 071 0 gusting 3 11.7
2020-Sep-20 07:48 039 0 gusting 3 11.7
2020-Sep-20 07:43 036 0 gusting 3 11.7
2020-Sep-20 07:38 050 1 gusting 3 11.7
2020-Sep-20 07:33 055 0 gusting 3 11.7
2020-Sep-20 07:28 057 1 gusting 2 11.7
2020-Sep-20 07:23 053 0 gusting 2 11.7
2020-Sep-20 07:18 050 12.2
2020-Sep-20 07:13 038 1 gusting 4 11.7
2020-Sep-20 07:08 046 1 gusting 4 11.7
2020-Sep-20 07:03 045 2 gusting 3 11.7
2020-Sep-20 06:58 060 0 gusting 3 11.7
2020-Sep-20 06:53 039 1 gusting 3 11.7
2020-Sep-20 06:48 043 11.7
2020-Sep-20 06:43 043 11.7
2020-Sep-20 06:38 043 11.7
2020-Sep-20 06:33 055 11.7
2020-Sep-20 06:28 055 11.7
2020-Sep-20 06:23 060 0 gusting 2 11.7
2020-Sep-20 06:18 052 11.7
2020-Sep-20 06:13 049 0 gusting 2 11.7
2020-Sep-20 06:08 053 11.7
2020-Sep-20 06:03 038 11.7
2020-Sep-20 05:58 038 11.7
2020-Sep-20 05:53 059 0 gusting 2 11.7
2020-Sep-20 05:48 067 11.7
2020-Sep-20 05:43 028 11.7
2020-Sep-20 05:38 036 12.2
2020-Sep-20 05:33 034 0 gusting 1 12.2
2020-Sep-20 05:28 039 12.2
2020-Sep-20 05:23 039 12.2
2020-Sep-20 05:18 038 12.2
2020-Sep-20 05:13 044 0 gusting 2 12.2
2020-Sep-20 05:08 350 0 gusting 2 12.2
2020-Sep-20 05:03 065 1 gusting 2 12.2
2020-Sep-20 04:58 040 11.7
2020-Sep-20 04:53 041 11.7
2020-Sep-20 04:48 041 11.7
2020-Sep-20 04:43 041 11.7
2020-Sep-20 04:38 047 11.7
2020-Sep-20 04:33 030 11.7
2020-Sep-20 04:28 031 11.7
2020-Sep-20 04:23 028 0 gusting 0 11.7
2020-Sep-20 04:18 009 11.7
2020-Sep-20 04:13 009 11.7
2020-Sep-20 04:08 009 11.7
2020-Sep-20 04:03 009 11.7
2020-Sep-20 03:58 009 11.7
2020-Sep-20 03:53 009 11.7
2020-Sep-20 03:48 009 11.7
2020-Sep-20 03:43 010 11.7
2020-Sep-20 03:38 025 11.7
2020-Sep-20 03:33 025 12.2
2020-Sep-20 03:28 025 12.8
2020-Sep-20 03:23 025 12.8
2020-Sep-20 03:18 025 12.8
2020-Sep-20 03:13 025 13.3
2020-Sep-20 03:08 025 13.3
2020-Sep-20 03:03 051 0 gusting 3 13.3
2020-Sep-20 02:58 050 0 gusting 3 13.9
2020-Sep-20 02:53 041 13.9
2020-Sep-20 02:48 051 0 gusting 2 13.9
2020-Sep-20 02:43 057 14.4
2020-Sep-20 02:38 046 14.4
2020-Sep-20 02:33 046 0 gusting 2 14.4
2020-Sep-20 02:28 044 0 gusting 3 14.4
2020-Sep-20 02:23 023 1 gusting 3 14.4
2020-Sep-20 02:18 062 1 gusting 3 14.4
2020-Sep-20 02:13 060 1 gusting 2 14.4
2020-Sep-20 02:08 069 1 gusting 2 14.4
2020-Sep-20 02:03 057 1 gusting 5 14.4
2020-Sep-20 01:58 061 0 gusting 5 14.4
2020-Sep-20 01:48 055 3 gusting 6 14.4
2020-Sep-20 01:43 098 0 gusting 4 14.4
2020-Sep-20 01:38 071 0 gusting 3 14.4
2020-Sep-20 01:33 069 0 gusting 3 15.0
2020-Sep-20 01:28 072 1 gusting 4 15.0
2020-Sep-20 01:23 059 0 gusting 4 14.4
2020-Sep-20 01:18 031 15.0
2020-Sep-20 01:13 067 0 gusting 3 15.0
2020-Sep-20 01:08 057 15.0
2020-Sep-20 01:03 044 0 gusting 4 15.0
2020-Sep-20 00:58 059 2 gusting 4 15.0
2020-Sep-20 00:53 065 1 gusting 4 15.0
2020-Sep-20 00:48 068 0 gusting 2 15.0
2020-Sep-20 00:43 049 0 gusting 2 15.0
2020-Sep-20 00:38 053 1 gusting 3 15.0
2020-Sep-20 00:33 039 1 gusting 4 15.0
2020-Sep-20 00:28 056 1 gusting 4 15.0
2020-Sep-20 00:23 060 1 gusting 4 15.0
2020-Sep-20 00:18 050 1 gusting 4 15.0
2020-Sep-20 00:13 071 0 gusting 4 15.0
2020-Sep-20 00:08 054 0 gusting 3 15.0
2020-Sep-20 00:03 052 0 gusting 3 15.0
2020-Sep-19 23:58 052 1 gusting 3 15.0
2020-Sep-19 23:53 225 15.0
2020-Sep-19 23:48 049 15.0
2020-Sep-19 23:43 039 15.0
2020-Sep-19 23:38 033 15.0
2020-Sep-19 23:33 038 15.0
2020-Sep-19 23:28 041 15.0
2020-Sep-19 23:23 065 0 gusting 4 15.0
2020-Sep-19 23:18 053 0 gusting 3 15.0
2020-Sep-19 23:13 062 1 gusting 3 15.0
2020-Sep-19 23:08 067 1 gusting 4 15.6
2020-Sep-19 23:03 076 1 gusting 4 15.6
2020-Sep-19 22:58 068 0 gusting 3 15.6
2020-Sep-19 22:53 059 1 gusting 5 15.6
2020-Sep-19 22:48 023 0 gusting 3 15.6
2020-Sep-19 22:43 065 1 gusting 3 15.6
2020-Sep-19 22:38 055 2 gusting 3 15.6
2020-Sep-19 22:33 062 15.6
2020-Sep-19 22:28 086 0 gusting 4 15.6
2020-Sep-19 22:23 078 2 gusting 4 15.6
2020-Sep-19 22:18 030 1 gusting 4 15.6
2020-Sep-19 22:13 085 1 gusting 4 16.1
2020-Sep-19 22:08 071 1 gusting 6 16.1
2020-Sep-19 22:03 051 0 gusting 6 16.1
2020-Sep-19 21:58 069 1 gusting 4 16.1
2020-Sep-19 21:53 061 1 gusting 6 16.1
2020-Sep-19 21:48 062 1 gusting 6 16.1
2020-Sep-19 21:43 053 2 gusting 6 16.1
2020-Sep-19 21:38 034 1 gusting 9 16.7
2020-Sep-19 21:33 063 2 gusting 9 16.7
2020-Sep-19 21:28 068 2 gusting 6 16.7
2020-Sep-19 21:23 057 2 gusting 6 16.7
2020-Sep-19 21:18 074 1 gusting 5 16.7
2020-Sep-19 21:13 121 3 gusting 6 16.7
2020-Sep-19 21:08 067 3 gusting 8 16.7
2020-Sep-19 21:03 061 2 gusting 8 16.7
2020-Sep-19 20:58 044 3 gusting 9 16.7
2020-Sep-19 20:53 062 3 gusting 9 16.7
2020-Sep-19 20:48 044 2 gusting 6 17.2
2020-Sep-19 20:43 079 3 gusting 6 17.2
2020-Sep-19 20:38 067 2 gusting 10 17.2
2020-Sep-19 20:33 067 1 gusting 10 17.2
2020-Sep-19 20:28 011 3 gusting 6 17.2
2020-Sep-19 20:23 069 2 gusting 6 17.2
2020-Sep-19 20:18 055 2 gusting 7 17.2
2020-Sep-19 20:13 101 2 gusting 7 17.2
2020-Sep-19 20:08 117 3 gusting 7 17.2
2020-Sep-19 20:03 089 2 gusting 7 17.2
2020-Sep-19 19:58 057 4 gusting 6 17.2
2020-Sep-19 19:53 053 2 gusting 9 17.8
2020-Sep-19 19:48 107 3 gusting 9 17.8
2020-Sep-19 19:43 055 2 gusting 9 17.8
2020-Sep-19 19:38 065 3 gusting 12 17.8
2020-Sep-19 19:33 104 3 gusting 12 17.8
2020-Sep-19 19:28 117 4 gusting 6 17.8
2020-Sep-19 19:23 017 1 gusting 6 17.8
2020-Sep-19 19:18 360 3 gusting 6 17.8
2020-Sep-19 19:13 103 0 gusting 6 17.8
2020-Sep-19 19:08 069 2 gusting 6 17.8
2020-Sep-19 19:03 089 2 gusting 6 17.8
2020-Sep-19 18:58 071 1 gusting 6 17.8
2020-Sep-19 18:53 083 3 gusting 6 17.8
2020-Sep-19 18:48 286 3 gusting 6 18.3
2020-Sep-19 18:43 119 2 gusting 6 17.8
2020-Sep-19 18:38 334 3 gusting 6 18.3
2020-Sep-19 18:33 360 1 gusting 6 18.3
2020-Sep-19 18:28 314 1 gusting 7 18.3
2020-Sep-19 18:23 173 0 gusting 7 17.8
2020-Sep-19 18:18 355 3 gusting 6 17.8
2020-Sep-19 18:13 092 4 gusting 6 17.8
2020-Sep-19 18:08 045 1 gusting 5 17.8
2020-Sep-19 18:03 040 1 gusting 5 17.8
2020-Sep-19 17:58 301 0 gusting 8 17.8
2020-Sep-19 17:53 029 4 gusting 12 17.8
2020-Sep-19 17:48 296 2 gusting 12 17.2
2020-Sep-19 17:43 057 0 gusting 6 17.2
2020-Sep-19 17:38 086 2 gusting 6 17.2
2020-Sep-19 17:33 065 3 gusting 6 17.2
2020-Sep-19 17:28 065 2 gusting 6 16.7
2020-Sep-19 17:23 340 3 gusting 10 16.7
2020-Sep-19 17:18 057 6 gusting 10 16.7
2020-Sep-19 17:13 079 2 gusting 6 16.7
2020-Sep-19 17:08 005 2 gusting 7 16.7
2020-Sep-19 17:03 065 5 gusting 10 16.7
2020-Sep-19 16:58 074 1 gusting 10 16.1
2020-Sep-19 16:53 081 3 gusting 6 16.1
2020-Sep-19 16:48 063 2 gusting 7 16.1
2020-Sep-19 16:43 031 3 gusting 9 16.1
2020-Sep-19 16:38 080 3 gusting 9 16.1
2020-Sep-19 16:33 041 4 gusting 9 16.1
2020-Sep-19 16:28 011 2 gusting 13 16.1
2020-Sep-19 16:23 033 4 gusting 13 16.1
2020-Sep-19 16:18 062 2 gusting 9 16.7
2020-Sep-19 16:13 056 2 gusting 7 16.1
2020-Sep-19 16:08 054 3 gusting 8 16.1
2020-Sep-19 16:03 101 3 gusting 9 16.1
2020-Sep-19 15:58 046 3 gusting 10 16.1
2020-Sep-19 15:53 109 3 gusting 10 15.6
2020-Sep-19 15:48 108 2 gusting 8 15.6
2020-Sep-19 15:43 050 6 gusting 10 15.6
2020-Sep-19 15:38 062 5 gusting 10 15.6
2020-Sep-19 15:33 127 4 gusting 8 15.0
2020-Sep-19 15:28 085 3 gusting 9 15.0
2020-Sep-19 15:23 045 3 gusting 11 15.0
2020-Sep-19 15:18 040 5 gusting 11 15.0
2020-Sep-19 15:13 013 5 gusting 9 15.0
2020-Sep-19 15:08 068 1 gusting 11 15.0
2020-Sep-19 15:03 067 5 gusting 11 15.0
2020-Sep-19 14:58 062 3 gusting 15 15.0
2020-Sep-19 14:53 349 6 gusting 15 15.0
2020-Sep-19 14:48 110 3 gusting 10 15.0
2020-Sep-19 14:43 079 5 gusting 10 15.0
2020-Sep-19 14:38 071 4 gusting 11 15.0
2020-Sep-19 14:33 090 6 gusting 11 15.0
2020-Sep-19 14:28 088 5 gusting 10 14.4
2020-Sep-19 14:23 066 4 gusting 10 14.4
2020-Sep-19 14:18 018 2 gusting 10 13.9
2020-Sep-19 14:13 138 4 gusting 10 13.9
2020-Sep-19 14:08 108 3 gusting 10 13.3
2020-Sep-19 14:03 040 2 gusting 10 13.3
2020-Sep-19 13:58 074 4 gusting 10 13.3
2020-Sep-19 13:53 044 3 gusting 7 12.8
2020-Sep-19 13:48 068 3 gusting 6 12.2
2020-Sep-19 13:43 015 2 gusting 6 12.2
2020-Sep-19 13:38 090 2 gusting 9 11.7
2020-Sep-19 13:33 053 5 gusting 9 11.7
2020-Sep-19 13:28 074 3 gusting 8 11.7
2020-Sep-19 13:23 057 4 gusting 8 11.1
2020-Sep-19 13:18 064 3 gusting 8 11.1
2020-Sep-19 13:13 037 5 gusting 8 11.1
2020-Sep-19 13:08 057 3 gusting 6 11.1
2020-Sep-19 13:03 080 2 gusting 6 11.1
2020-Sep-19 12:58 112 2 gusting 7 11.1
2020-Sep-19 12:53 081 2 gusting 10 11.1
2020-Sep-19 12:48 074 2 gusting 11 11.1
2020-Sep-19 12:43 024 4 gusting 11 11.1
2020-Sep-19 12:38 054 4 gusting 12 11.1
2020-Sep-19 12:33 053 0 gusting 12 11.1
2020-Sep-19 12:28 068 2 gusting 6 11.1
2020-Sep-19 12:23 058 2 gusting 9 11.1
2020-Sep-19 12:18 093 1 gusting 9 11.1
2020-Sep-19 12:13 067 2 gusting 9 11.1
2020-Sep-19 12:08 015 2 gusting 9 11.1
2020-Sep-19 12:03 053 2 gusting 8 11.1
2020-Sep-19 11:58 017 4 gusting 13 11.1
2020-Sep-19 11:53 040 3 gusting 13 11.1
2020-Sep-19 11:48 032 2 gusting 7 11.1
2020-Sep-19 11:43 053 1 gusting 7 11.1
2020-Sep-19 11:38 063 3 gusting 6 11.1
2020-Sep-19 11:33 344 0 gusting 8 11.1
2020-Sep-19 11:28 022 4 gusting 8 11.1
2020-Sep-19 11:23 051 4 gusting 9 11.7
2020-Sep-19 11:18 309 1 gusting 13 11.7
2020-Sep-19 11:13 041 4 gusting 13 11.7
2020-Sep-19 11:08 343 4 gusting 12 11.7
2020-Sep-19 11:03 046 3 gusting 9 11.7
2020-Sep-19 10:58 040 4 gusting 9 11.7
2020-Sep-19 10:53 161 4 gusting 11 11.7
2020-Sep-19 10:48 057 3 gusting 11 11.7
2020-Sep-19 10:43 051 5 gusting 11 11.7
2020-Sep-19 10:38 016 4 gusting 10 11.7
2020-Sep-19 10:33 059 2 gusting 10 11.7
2020-Sep-19 10:28 049 5 gusting 10 11.7
2020-Sep-19 10:23 078 2 gusting 8 11.7
2020-Sep-19 10:18 042 1 gusting 10 11.7
2020-Sep-19 10:13 084 2 gusting 10 11.7
2020-Sep-19 10:08 061 3 gusting 9 11.7
2020-Sep-19 10:03 014 4 gusting 9 11.7
2020-Sep-19 09:58 051 4 gusting 6 11.7
2020-Sep-19 09:53 054 2 gusting 10 12.2
2020-Sep-19 09:48 056 5 gusting 10 12.2
2020-Sep-19 09:43 030 3 gusting 11 12.2
2020-Sep-19 09:38 080 4 gusting 11 12.2
2020-Sep-19 09:33 051 4 gusting 12 12.2
2020-Sep-19 09:28 088 2 gusting 12 12.2
2020-Sep-19 09:23 037 0 gusting 8 12.2
2020-Sep-19 09:18 065 1 gusting 6 12.2
2020-Sep-19 09:13 047 1 gusting 13 12.2
2020-Sep-19 09:08 314 3 gusting 13 12.8
2020-Sep-19 09:03 036 0 gusting 11 12.8
2020-Sep-19 08:58 005 3 gusting 11 12.8
2020-Sep-19 08:53 099 1 gusting 13 12.8
2020-Sep-19 08:48 067 2 gusting 13 12.8
2020-Sep-19 08:43 338 0 gusting 9 12.8
2020-Sep-19 08:38 067 4 gusting 9 12.8
2020-Sep-19 08:33 023 4 gusting 6 12.8
2020-Sep-19 08:28 333 1 gusting 6 12.8
2020-Sep-19 08:23 049 3 gusting 10 12.8
2020-Sep-19 08:19 036 3 gusting 10 12.8
2020-Sep-19 08:13 045 2 gusting 7 13.3
2020-Sep-19 08:08 360 4 gusting 7 13.3
2020-Sep-19 08:03 141 1 gusting 11 13.3
2020-Sep-19 07:58 070 3 gusting 13 13.3
2020-Sep-19 07:53 079 4 gusting 13 13.3
2020-Sep-19 07:48 204 2 gusting 10 13.3
2020-Sep-19 07:43 249 1 gusting 9 13.3
2020-Sep-19 07:38 040 4 gusting 9 13.3
2020-Sep-19 07:33 231 2 gusting 10 13.9
2020-Sep-19 07:28 019 1 gusting 10 13.9
2020-Sep-19 07:23 028 4 gusting 8 13.9
2020-Sep-19 07:18 070 1 gusting 8 13.9
2020-Sep-19 07:13 041 2 gusting 11 13.9
2020-Sep-19 07:08 022 4 gusting 12 13.9
2020-Sep-19 07:03 026 3 gusting 12 13.9
2020-Sep-19 06:58 028 4 gusting 10 14.4
2020-Sep-19 06:53 360 3 gusting 10 14.4
2020-Sep-19 06:48 049 2 gusting 12 14.4
2020-Sep-19 06:43 047 5 gusting 12 14.4
2020-Sep-19 06:38 036 2 gusting 13 14.4
2020-Sep-19 06:33 323 6 gusting 13 14.4
2020-Sep-19 06:28 062 5 gusting 8 15.0
2020-Sep-19 06:23 057 4 gusting 11 15.0
2020-Sep-19 06:18 073 1 gusting 11 15.0
2020-Sep-19 06:13 042 2 gusting 11 15.0
2020-Sep-19 06:08 055 3 gusting 11 15.0
2020-Sep-19 06:03 026 4 gusting 11 15.0
2020-Sep-19 05:58 051 5 gusting 11 15.6
2020-Sep-19 05:53 057 6 gusting 11 15.6
2020-Sep-19 05:48 065 6 gusting 11 15.6
2020-Sep-19 05:43 355 4 gusting 10 15.6
2020-Sep-19 05:38 044 3 gusting 10 15.6
2020-Sep-19 05:33 076 4 gusting 10 15.6
2020-Sep-19 05:28 056 4 gusting 9 15.6
2020-Sep-19 05:23 065 5 gusting 9 16.1
2020-Sep-19 05:18 034 4 gusting 10 16.1
2020-Sep-19 05:13 087 2 gusting 8 16.1
2020-Sep-19 05:08 081 2 gusting 8 16.1
2020-Sep-19 05:03 063 2 gusting 6 16.1
2020-Sep-19 04:58 041 3 gusting 6 16.1
2020-Sep-19 04:53 063 2 gusting 6 16.7
2020-Sep-19 04:48 074 1 gusting 6 16.7
2020-Sep-19 04:43 301 16.7
2020-Sep-19 04:38 054 2 gusting 9 16.7
2020-Sep-19 04:33 048 3 gusting 8 16.7
2020-Sep-19 04:28 034 0 gusting 6 16.7
2020-Sep-19 04:23 030 1 gusting 5 17.2
2020-Sep-19 04:18 355 0 gusting 11 17.2
2020-Sep-19 04:13 061 5 gusting 11 17.2
2020-Sep-19 04:08 073 17.2
2020-Sep-19 04:03 044 1 gusting 15 17.2
2020-Sep-19 03:58 044 3 gusting 8 17.2
2020-Sep-19 03:53 048 1 gusting 8 17.8
2020-Sep-19 03:48 342 1 gusting 8 17.8
2020-Sep-19 03:43 046 2 gusting 10 17.8
2020-Sep-19 03:38 092 6 gusting 10 17.8
2020-Sep-19 03:33 030 0 gusting 8 17.8
2020-Sep-19 03:28 071 4 gusting 8 17.8
2020-Sep-19 03:23 123 3 gusting 9 18.3
2020-Sep-19 03:18 048 1 gusting 9 18.3
2020-Sep-19 03:13 005 4 gusting 9 18.3
2020-Sep-19 03:08 031 2 gusting 10 18.3
2020-Sep-19 03:03 039 4 gusting 10 18.3
2020-Sep-19 02:58 057 2 gusting 8 18.3
2020-Sep-19 02:53 059 3 gusting 8 18.9
2020-Sep-19 02:48 028 2 gusting 11 18.9
2020-Sep-19 02:43 059 4 gusting 11 18.9
2020-Sep-19 02:38 067 2 gusting 7 18.9
2020-Sep-19 02:33 058 3 gusting 6 18.9
2020-Sep-19 02:28 047 2 gusting 8 18.9
2020-Sep-19 02:23 101 3 gusting 12 18.9
2020-Sep-19 02:18 013 6 gusting 12 18.9
2020-Sep-19 02:13 054 3 gusting 6 18.3
2020-Sep-19 02:08 078 18.3
2020-Sep-19 02:03 076 18.3
2020-Sep-19 01:58 329 18.3
2020-Sep-19 01:53 284 1 gusting 2 18.3
2020-Sep-19 01:48 069 0 gusting 2 18.9
2020-Sep-19 01:43 337 18.9
2020-Sep-19 01:38 355 18.9
2020-Sep-19 01:33 292 0 gusting 2 18.9
2020-Sep-19 01:28 005 0 gusting 2 18.9
2020-Sep-19 01:23 142 18.9
2020-Sep-19 01:18 151 18.9
2020-Sep-19 01:13 327 18.9
2020-Sep-19 01:08 333 0 gusting 3 18.9
2020-Sep-19 01:03 322 19.4
2020-Sep-19 00:58 154 0 gusting 2 19.4
2020-Sep-19 00:53 049 19.4
2020-Sep-19 00:48 046 1 gusting 3 19.4
2020-Sep-19 00:43 086 0 gusting 3 18.9
2020-Sep-19 00:38 061 18.9
2020-Sep-19 00:33 061 18.9
2020-Sep-19 00:28 061 0 gusting 1 18.9
2020-Sep-19 00:23 061 19.4
2020-Sep-19 00:18 061 19.4
2020-Sep-19 00:13 061 19.4
2020-Sep-19 00:08 062 0 gusting 1 19.4
2020-Sep-19 00:03 062 19.4
2020-Sep-18 23:58 062 20.0
2020-Sep-18 23:53 062 20.0
2020-Sep-18 23:48 062 20.0
2020-Sep-18 23:43 062 20.6
2020-Sep-18 23:38 062 20.6
2020-Sep-18 23:33 062 20.6
2020-Sep-18 23:28 062 20.6
2020-Sep-18 23:23 062 20.6
2020-Sep-18 23:18 063 0 gusting 1 21.1
2020-Sep-18 23:13 059 21.1
2020-Sep-18 23:08 062 0 gusting 2 21.1
2020-Sep-18 23:03 075 0 gusting 2 21.1
2020-Sep-18 22:58 062 21.7
2020-Sep-18 22:53 062 21.7
2020-Sep-18 22:48 062 0 gusting 2 21.7
2020-Sep-18 22:43 053 0 gusting 1 22.2
2020-Sep-18 22:38 053 22.2
2020-Sep-18 22:33 053 22.2
2020-Sep-18 22:28 053 0 gusting 1 22.2
2020-Sep-18 22:23 053 22.2
2020-Sep-18 22:18 054 0 gusting 1 21.7
2020-Sep-18 22:13 054 21.7
2020-Sep-18 22:08 050 0 gusting 2 21.7
2020-Sep-18 22:03 055 0 gusting 2 21.7
2020-Sep-18 21:58 044 22.2
2020-Sep-18 21:53 044 22.2
2020-Sep-18 21:48 060 0 gusting 2 22.2
2020-Sep-18 21:43 072 0 gusting 2 22.2
2020-Sep-18 21:38 059 22.2
2020-Sep-18 21:33 059 22.2
2020-Sep-18 21:28 056 22.8
2020-Sep-18 21:23 056 22.8
2020-Sep-18 21:18 065 22.8
2020-Sep-18 21:13 024 0 gusting 2 22.8
2020-Sep-18 21:08 047 22.8
2020-Sep-18 21:03 075 0 gusting 2 22.8
2020-Sep-18 20:58 056 1 gusting 5 22.8
2020-Sep-18 20:53 096 0 gusting 5 22.8
2020-Sep-18 20:48 040 1 gusting 8 22.8
2020-Sep-18 20:43 039 3 gusting 8 22.8
2020-Sep-18 20:38 300 2 gusting 4 22.2
2020-Sep-18 20:33 069 1 gusting 5 22.2
2020-Sep-18 20:28 028 2 gusting 5 22.2
2020-Sep-18 20:23 060 0 gusting 4 22.2
2020-Sep-18 20:18 019 0 gusting 8 22.2
2020-Sep-18 20:13 071 1 gusting 8 22.8
2020-Sep-18 20:08 055 1 gusting 6 22.8
2020-Sep-18 20:03 090 2 gusting 6 22.2
2020-Sep-18 19:58 076 3 gusting 6 22.2
2020-Sep-18 19:53 072 1 gusting 5 22.2
2020-Sep-18 19:48 115 2 gusting 6 22.2
2020-Sep-18 19:43 020 2 gusting 6 22.2
2020-Sep-18 19:38 034 2 gusting 6 22.2
2020-Sep-18 19:33 076 1 gusting 4 22.2
2020-Sep-18 19:28 061 2 gusting 6 22.2
2020-Sep-18 19:23 067 1 gusting 7 22.2
2020-Sep-18 19:18 309 1 gusting 7 22.2
2020-Sep-18 19:13 049 4 gusting 8 22.2
2020-Sep-18 19:08 046 1 gusting 8 22.2
2020-Sep-18 19:03 021 4 gusting 7 22.2
2020-Sep-18 18:58 077 1 gusting 11 22.2
2020-Sep-18 18:53 038 4 gusting 11 22.2
2020-Sep-18 18:48 040 2 gusting 8 22.2
2020-Sep-18 18:43 061 2 gusting 6 22.2
2020-Sep-18 18:38 005 3 gusting 9 22.2
2020-Sep-18 18:33 046 2 gusting 10 22.2
2020-Sep-18 18:28 042 3 gusting 11 22.2
2020-Sep-18 18:23 331 0 gusting 11 22.2
2020-Sep-18 18:18 011 5 gusting 11 22.8
2020-Sep-18 18:13 063 4 gusting 11 22.8
2020-Sep-18 18:08 103 0 gusting 9 22.8
2020-Sep-18 18:03 079 4 gusting 9 22.8
2020-Sep-18 17:58 030 1 gusting 6 22.8
2020-Sep-18 17:53 052 1 gusting 8 22.8
2020-Sep-18 17:48 061 2 gusting 8 23.3
2020-Sep-18 17:43 005 2 gusting 6 23.3
2020-Sep-18 17:38 295 0 gusting 6 23.3
2020-Sep-18 17:33 009 3 gusting 6 22.8
2020-Sep-18 17:28 005 2 gusting 6 22.8
2020-Sep-18 17:23 042 0 gusting 6 22.8
2020-Sep-18 17:18 005 2 gusting 6 22.8
2020-Sep-18 17:13 011 3 gusting 9 22.2
2020-Sep-18 17:08 021 4 gusting 9 22.2
2020-Sep-18 17:03 051 4 gusting 6 22.2